Weather in Chaplinka

Ukraine / Kherson District     46˚21′53″N   33˚32′11″E
temp.,
°C
wind,
m/s
gust,
m/s
humid.,
%
clouds,
%
prec.,
mm/h
press.,
hPa
HPBL,
m
3 december, thu
thu323:00+5˚ene5883100 0.0 1025389
02:00+6˚ene5887100 0.0 1024330
05:00+6˚ene5790100 0.8 1023277
08:00+6˚e6993100 0.8 1024305
11:00+9˚e698293 0.0 1024441
14:00+8˚ese688497 0.2 1023435
17:00+6˚e6109159 0.0 1023375
20:00+6˚e698875 0.0 1023409
4 december, fri
fri423:00+6˚e5109243 0.0 1023280
02:00+6˚e599222 0.0 1023258
05:00+5˚e611939 0.0 1022314
08:00+6˚e7129127 0.0 1023429
11:00+8˚e8128097 0.0 1022462
14:00+9˚e8127667 0.0 1021458
17:00+6˚e813885 0.0 1022444
20:00+7˚e8158616 0.0 1023483
5 december, sat
sat523:00+6˚e814884 0.0 1023469
02:00+6˚e814898 0.0 1023482
05:00+5˚e8148834 0.0 1023532
08:00+5˚e9128166 0.0 1025635
11:00+5˚e81179100 0.0 1025646
14:00+5˚e81176100 0.0 1024749
17:00+4˚e91278100 0.0 1025763
20:00+4˚e81275100 0.0 1026818
6 december, sun
sun623:00+4˚e81173100 0.0 1026896
02:00+3˚e81173100 0.0 1026853
05:00+3˚e8137592 0.0 1026825
08:00+2˚e9137695 0.0 1026845
11:00+3˚e91373100 0.0 1026883
14:00+3˚e91272100 0.1 1025903
17:00+3˚e101373100 0.0 1025909
20:00+4˚e101473100 0.1 1026912
7 december, mon
mon723:00+3˚e9147595 0.0 1026770
02:00+3˚e10157696 0.0 1026768
05:00+3˚e10157792 0.0 1026778
08:00+3˚e11167696 0.0 1026800
11:00+3˚e11157399 0.0 1026849
14:00+2˚e11157699 0.0 1025796
17:00+3˚e101578100 0.0 1025895
20:00+4˚e10157698 0.0 1024786